FW9957 Weather Reports


time (UTC)temp
F
wind
direction
speed
knots
gust
knots
rain 1hr
in
rain 24hr
in
rain mn
in
humidity
%
barometer
mb
20260504150953 70 252 0.0 0.0 0.00 0.00 0.00 63 1014.5
20260504150450 69 255 0.0 0.0 0.00 0.00 0.00 62 1014.7
20260504140916 65 253 0.0 0.0 0.00 0.00 0.00 72 1015.0
20260504140412 64 257 0.0 0.0 0.00 0.00 0.00 74 1014.7
20260504130337 60 248 0.0 0.0 0.00 0.00 0.00 78 1014.6
20260504120300 55 252 0.0 0.0 0.00 0.00 0.00 93 1014.4
20260504110224 53 243 0.0 0.0 0.00 0.00 0.00 92 1014.2
20260504100142 54 254 0.0 0.0 0.00 0.00 0.00 91 1014.1
20260504090105 55 246 0.0 0.0 0.00 0.00 0.00 90 1014.2
20260504081535 55 255 0.0 0.0 0.00 0.00 0.00 89 1014.0
20260504081031 55 250 0.0 0.0 0.00 0.00 0.00 89 1014.1
20260504080528 55 252 0.0 0.0 0.00 0.00 0.00 89 1014.1
20260504050340 59 246 0.0 0.0 0.00 0.00 0.00 86 1015.5
20260504045838 59 248 0.0 0.0 0.00 0.00 0.00 85 1015.9
20260504045332 59 250 0.0 0.0 0.00 0.00 0.00 85 1015.6
20260504044829 59 248 0.0 0.0 0.00 0.00 0.00 85 1015.7
20260504044327 59 246 0.0 0.0 0.00 0.00 0.00 85 1015.7
20260504043824 60 245 0.0 0.0 0.00 0.00 0.00 85 1015.7
20260504043321 60 238 0.0 0.0 0.00 0.00 0.00 85 1015.6
20260504042818 60 235 0.0 0.0 0.00 0.00 0.00 85 1015.7
20260504042314 60 246 0.0 0.0 0.00 0.00 0.00 85 1015.8
20260504041811 60 247 0.0 0.0 0.00 0.00 0.00 84 1015.7
20260504041307 60 244 0.0 0.0 0.00 0.00 0.00 83 1015.7
20260504040803 60 228 0.0 0.0 0.00 0.00 0.00 82 1015.7
20260504040301 60 254 0.0 0.0 0.00 0.00 0.00 82 1015.7
20260504035757 60 254 0.0 0.0 0.00 0.00 0.00 83 1015.7
20260504035254 60 254 0.0 0.0 0.00 0.00 0.00 83 1015.8
20260504034751 60 249 0.0 0.0 0.00 0.00 0.00 82 1015.8
20260504034249 60 249 0.0 0.0 0.00 0.00 0.00 82 1015.7
20260504033746 61 247 0.0 0.0 0.00 0.00 0.00 81 1015.9
20260504033244 61 251 0.0 0.0 0.00 0.00 0.00 81 1015.9
20260504032740 61 243 0.0 0.0 0.00 0.00 0.00 81 1015.6
20260504032237 61 242 0.0 0.0 0.00 0.00 0.00 81 1015.6
20260504031734 61 246 0.0 0.0 0.00 0.00 0.00 81 1015.9
20260504031232 61 246 0.0 0.0 0.00 0.00 0.00 80 1015.7
20260504030727 62 242 0.0 0.0 0.00 0.00 0.00 80 1016.0
20260504030225 62 245 0.0 0.0 0.00 0.00 0.00 79 1015.9
20260504025721 62 246 0.0 0.0 0.00 0.00 0.00 79 1015.9
20260504025218 62 253 0.0 0.0 0.00 0.00 0.00 79 1015.9
20260504024715 62 245 0.0 0.0 0.00 0.00 0.00 78 1015.8
20260504024211 62 244 0.0 0.0 0.00 0.00 0.00 77 1015.8
20260504023708 62 245 0.0 0.0 0.00 0.00 0.00 77 1015.7
20260504023204 63 244 0.0 0.0 0.00 0.00 0.00 76 1015.7
20260504022700 63 247 0.0 0.0 0.00 0.00 0.00 76 1015.6
20260504022156 63 244 0.0 0.0 0.00 0.00 0.00 76 1015.7
20260504021655 63 239 0.0 0.0 0.00 0.00 0.00 76 1015.7
20260504021151 63 250 0.0 0.0 0.00 0.00 0.00 75 1015.5
20260504020648 64 242 0.0 0.0 0.00 0.00 0.00 74 1015.4
20260504020144 64 248 0.0 0.0 0.00 0.00 0.00 74 1015.4
20260504015641 64 247 0.0 0.0 0.00 0.00 0.00 73 1015.3
20260504015137 64 243 0.0 0.0 0.00 0.00 0.00 72 1015.5
20260504014633 64 254 0.0 0.0 0.00 0.00 0.00 72 1015.3
20260504014130 66 249 0.0 0.0 0.00 0.00 0.00 69 1015.6
20260504013628 66 240 0.0 0.0 0.00 0.00 0.00 68 1015.4
20260504013124 66 243 0.0 0.0 0.00 0.00 0.00 66 1015.3
20260504012622 66 248 0.0 0.0 0.00 0.00 0.00 66 1015.5
20260504012120 67 246 0.0 0.0 0.00 0.00 0.00 64 1015.4
20260504011616 67 248 0.0 0.0 0.00 0.00 0.00 63 1015.4
20260504011113 68 248 0.0 0.0 0.00 0.00 0.00 64 1015.2
20260504010608 68 255 0.0 0.0 0.00 0.00 0.00 63 1015.0
20260504010105 68 255 0.0 0.0 0.00 0.00 0.00 62 1015.1
20260504005601 69 255 0.0 0.0 0.00 0.00 0.00 61 1014.9
20260504005059 69 255 0.0 0.0 0.00 0.00 0.00 61 1015.1
20260504004556 70 255 0.0 0.0 0.00 0.00 0.00 59 1014.9
20260504004053 71 255 0.0 0.0 0.00 0.00 0.00 56 1014.8
20260504003549 71 255 0.0 0.0 0.00 0.00 0.00 56 1015.0
20260504003046 71 255 0.0 0.0 0.00 0.00 0.00 54 1014.9
20260504002543 72 255 0.0 0.0 0.00 0.00 0.00 54 1014.9
20260504002041 72 255 0.0 0.0 0.00 0.00 0.00 51 1014.7
20260504001538 72 255 0.0 0.0 0.00 0.00 0.00 50 1014.9
20260504001034 72 255 0.0 0.0 0.00 0.00 0.00 50 1014.7
20260504000532 73 255 0.0 0.0 0.00 0.00 0.00 49 1014.9
20260504000029 73 255 0.0 0.0 0.00 0.00 0.00 50 1014.7
20260503235527 73 255 0.0 0.0 0.00 0.00 0.00 50 1014.7
20260503235024 73 255 0.0 0.0 0.00 0.00 0.00 48 1014.7
20260503234521 73 256 0.0 0.0 0.00 0.00 0.00 50 1014.9
20260503234020 73 256 0.0 0.0 0.00 0.00 0.00 49 1014.6
20260503233515 73 256 0.0 0.0 0.00 0.00 0.00 51 1014.8
20260503233011 74 254 0.0 0.0 0.00 0.00 0.00 47 1014.9
20260503232508 74 255 0.0 0.0 0.00 0.00 0.00 47 1014.8
20260503232001 74 255 0.0 0.0 0.00 0.00 0.00 46 1014.9
20260503231458 74 256 0.0 0.0 0.00 0.00 0.00 45 1014.9
20260503230954 74 255 0.0 0.0 0.00 0.00 0.00 46 1014.9
20260503230451 74 256 0.0 0.0 0.00 0.00 0.00 47 1015.0
20260503225949 74 249 0.0 0.0 0.00 0.00 0.00 46 1015.1
20260503225445 75 248 0.0 0.0 0.00 0.00 0.00 46 1015.0
20260503224941 75 250 0.0 0.0 0.00 0.00 0.00 48 1015.2
20260503224438 75 255 0.0 0.0 0.00 0.00 0.00 45 1015.1
20260503223936 75 270 0.0 0.0 0.00 0.00 0.00 45 1015.1
20260503223433 75 254 0.0 0.0 0.00 0.00 0.00 43 1014.9
20260503222928 75 254 0.0 0.0 0.00 0.00 0.00 44 1015.1
20260503222427 75 262 0.0 0.0 0.00 0.00 0.00 44 1015.1
20260503221925 75 270 0.9 1.7 0.00 0.00 0.00 44 1015.0
20260503221423 75 250 0.0 0.0 0.00 0.00 0.00 44 1015.2
20260503220920 75 253 0.0 0.0 0.00 0.00 0.00 45 1015.2
20260503220416 75 252 0.0 0.9 0.00 0.00 0.00 46 1015.4
20260503215913 76 248 0.0 0.0 0.00 0.00 0.00 43 1015.4
20260503215410 76 253 0.0 0.0 0.00 0.00 0.00 44 1015.4
20260503214908 75 257 0.0 0.0 0.00 0.00 0.00 44 1015.5
20260503214405 75 255 0.0 0.0 0.00 0.00 0.00 42 1015.6
20260503213902 75 249 0.0 0.0 0.00 0.00 0.00 41 1015.5
20260503213400 75 248 1.7 1.7 0.00 0.00 0.00 42 1015.6
20260503212856 75 247 0.0 0.0 0.00 0.00 0.00 42 1015.8
20260503212355 75 252 0.0 0.0 0.00 0.00 0.00 42 1015.8
20260503211851 75 251 0.0 0.0 0.00 0.00 0.00 41 1015.7
20260503211348 75 253 0.0 0.0 0.00 0.00 0.00 42 1015.7
20260503210843 75 254 0.0 0.0 0.00 0.00 0.00 42 1016.0
20260503210341 75 280 1.7 2.6 0.00 0.00 0.00 40 1016.1
20260503205836 75 254 0.0 0.0 0.00 0.00 0.00 44 1016.1
20260503205332 75 264 0.9 1.7 0.00 0.00 0.00 41 1016.2
20260503204829 75 246 0.0 0.0 0.00 0.00 0.00 44 1016.3
20260503204327 75 253 0.0 0.0 0.00 0.00 0.00 43 1016.4
20260503203824 75 256 0.0 0.0 0.00 0.00 0.00 41 1016.4
20260503203321 75 315 1.7 3.5 0.00 0.00 0.00 39 1016.6
20260503202818 75 261 0.0 0.0 0.00 0.00 0.00 40 1016.4
20260503202316 75 249 0.0 0.0 0.00 0.00 0.00 42 1016.5
20260503201814 75 259 0.0 0.0 0.00 0.00 0.00 41 1016.7
20260503201310 75 249 0.0 0.0 0.00 0.00 0.00 43 1016.8
20260503200808 75 253 0.0 0.0 0.00 0.00 0.00 43 1016.6
20260503200303 75 253 0.0 0.0 0.00 0.00 0.00 42 1016.7
20260503195801 75 261 0.0 0.0 0.00 0.00 0.00 41 1017.0
20260503195258 75 250 0.0 0.9 0.00 0.00 0.00 41 1017.2
20260503194755 75 252 0.0 0.0 0.00 0.00 0.00 41 1017.3
20260503194251 75 271 0.0 0.0 0.00 0.00 0.00 39 1017.1
20260503193747 75 252 0.0 0.0 0.00 0.00 0.00 43 1017.5
20260503193243 74 248 0.0 0.0 0.00 0.00 0.00 41 1017.4
20260503192739 74 239 0.0 0.0 0.00 0.00 0.00 39 1017.4
20260503192234 74 253 0.0 0.0 0.00 0.00 0.00 41 1017.6
20260503191731 74 254 0.0 0.0 0.00 0.00 0.00 40 1017.5
20260503191229 74 255 0.0 0.0 0.00 0.00 0.00 43 1017.5
20260503190725 74 287 0.0 0.0 0.00 0.00 0.00 39 1017.6
20260503190222 73 254 0.0 0.0 0.00 0.00 0.00 40 1017.8
20260503185719 73 224 0.0 0.0 0.00 0.00 0.00 42 1017.7
20260503185215 73 252 0.0 0.0 0.00 0.00 0.00 44 1017.9
20260503184709 73 263 0.0 0.0 0.00 0.00 0.00 41 1018.0
20260503184206 73 250 0.0 0.0 0.00 0.00 0.00 40 1018.1
20260503183703 73 265 1.7 1.7 0.00 0.00 0.00 40 1018.1
20260503183200 73 252 0.0 0.0 0.00 0.00 0.00 42 1018.1
20260503182658 73 258 0.0 0.0 0.00 0.00 0.00 44 1018.3
20260503182156 73 253 0.0 0.0 0.00 0.00 0.00 40 1018.3
20260503181652 73 251 0.0 0.0 0.00 0.00 0.00 43 1018.6
20260503181149 73 247 0.0 0.0 0.00 0.00 0.00 43 1018.6
20260503180646 73 253 0.0 0.0 0.00 0.00 0.00 41 1018.5
20260503180144 72 254 0.0 0.0 0.00 0.00 0.00 42 1018.7
20260503175641 72 251 0.0 0.0 0.00 0.00 0.00 44 1018.5
20260503175138 72 249 0.0 0.0 0.00 0.00 0.00 44 1018.7
20260503174634 72 246 0.0 0.0 0.00 0.00 0.00 45 1019.1
20260503174132 72 239 0.0 0.0 0.00 0.00 0.00 46 1018.8
20260503173627 72 245 0.0 0.0 0.00 0.00 0.00 46 1018.8
20260503173123 71 257 0.0 0.0 0.00 0.00 0.00 44 1019.0
20260503172620 71 237 0.0 0.0 0.00 0.00 0.00 46 1019.1
20260503172118 71 239 0.0 0.0 0.00 0.00 0.00 46 1019.1
20260503171614 70 224 0.0 0.0 0.00 0.00 0.00 47 1019.3
20260503171111 70 254 0.0 0.0 0.00 0.00 0.00 43 1019.4
20260503170609 70 246 0.0 0.0 0.00 0.00 0.00 48 1019.4
20260503170105 70 251 0.0 0.0 0.00 0.00 0.00 47 1019.4